Skip Page Navigation
NASA JPL Caltech
NASA Logo - Jet Propulsion Laboratory + View the NASA Portal
+ Center for Near-Earth Object Studies
JPL Home Earth Solar System Stars & Galaxies Technology
JPL Solar System Dynamics
BODIES ORBITS EPHEMERIDES TOOLS PHYSICAL DATA DISCOVERY FAQ SITE MAP
JPL Small-Body Database Browser
Search: [ help ]  
181752 (1996 JZ6)
Classification: Main-belt Asteroid          SPK-ID: 2181752
Ephemeris | Orbit Diagram | Orbital Elements | Mission Design | Physical Parameters | Discovery Circumstances | Close-Approach Data ]

[ hide orbit diagram ]

For accurate long-term ephemerides, please instead use our Horizons system.This orbit viewer was implemented using two-body methods, and hence should not be used for determining accurate long-term trajectories (over several years or decades) or planetary encounter circumstances.


Orbital Elements at Epoch 2459200.5 (2020-Dec-17.0) TDB
Reference: JPL 12 (heliocentric ecliptic J2000)
 Element Value Uncertainty (1-sigma)   Units 
e .1402865073075505 5.2084e-08  
a 2.540314936149808 1.4351e-08 au
q 2.183943026296148 1.355e-07 au
i 3.093197544023722 4.3886e-06 deg
node 97.26331493102855 0.00016735 deg
peri 147.0168969710054 0.00017029 deg
M 12.21556724962562 3.4321e-05 deg
tp 2459150.318815588016
(2020-Oct-27.81881559)
0.00014082 TDB
period 1478.869218199248
4.05
1.2532e-05
3.431e-08
d
yr
n .2434292333424558 2.0628e-09 deg/d
Q 2.896686846003468 1.6364e-08 au
  Orbit Determination Parameters
   # obs. used (total)      215  
   data-arc span      8776 days (24.03 yr)  
   first obs. used      1996-05-11  
   last obs. used      2020-05-21  
   planetary ephem.      DE441  
   SB-pert. ephem.      SB441-N16  
   condition code      0  
   norm. resid. RMS      .66613  
   source      ORB  
   producer      Otto Matic  
   solution date      2021-Apr-13 21:31:53  

Additional Information
 Earth MOID = 1.16996 au 
 Jupiter MOID = 2.11876 au 
 T_jup = 3.430 
[ show covariance matrix ]

Ephemeris | Orbit Diagram | Orbital Elements | Mission Design | Physical Parameters | Discovery Circumstances | Close-Approach Data ]

Physical Parameter Table
Parameter Symbol Value Units Sigma Reference Notes
absolute magnitude H 17.20   n/a E2021B55  

181752 (1996 JZ6)          Discovered 1996-May-11 by Spacewatch at Kitt Peak
Reference: 20080420/Numbers.arcLast Updated: 2008-04-23

[ show close-approach data ]
Alternate Designations
 1996 JZ6 = 2000 HH40 
Ephemeris | Orbit Diagram | Orbital Elements | Mission Design | Physical Parameters | Discovery Circumstances | Close-Approach Data ]
ABOUT SSD CREDITS/AWARDS PRIVACY/COPYRIGHT GLOSSARY LINKS
FirstGov 2021-Jun-17 23:48 UT
(server date/time)  
NASA Home Page
Site Manager:   Ryan S. Park
Webmaster  Alan B. Chamberlin